User: anonymous   Login
Location: Newark
(48.1500°N, 2.9667°W)
Time: 07:40:51
(UTC+00:00)
Language:

Courier 1B - Orbit

View from above orbital plane
View from above orbital plane
View from above satellite
View from above satellite

Ground track
Ground track

The orbit data is extracted from the following two-line orbital elements,

1    58U 60013A   20021.57030906 +.00000089 +00000-0 +33911-5 0  9997
2    58 028.3274 124.8767 0165059 284.9595 073.2731 13.46320578918677
Epoch (UTC): 21 January 2020 13:41:14
Eccentricity: 0.0165059
inclination: 28.3274°
perigee height: 962 km
apogee height: 1209 km
right ascension of ascending node: 124.8767°
argument of perigee: 284.9595°
revolutions per day: 13.46320578
mean anomaly at epoch: 73.2731°
orbit number at epoch: 91867

The dashed part of the orbit path shows where the satellite is in the earth's shadow,  

DLR